Powrót do katalogu

STARLINK-30831

AktywnyŁącznośćVLEO
NORAD 58153·PAYLOAD·🇺🇸 United States

Wystrzelony Oct 29, 2023 z Vandenberg Space Force Base

Loading…

Następne Przeloty (najbliższe 24 godziny)

TLE

ŚwieżeSource: CelesTrak SupGP

Epoka: Sep 15, 2026, 02:26 UTC

1 58153C 23166D   26258.10187500 -.00027317  00000+0 -87855-3 0  2580
2 58153  53.1588  58.7619 0001211  85.4687 286.5203 15.31712184    13

Śledź STARLINK-30831 w czasie rzeczywistym z AllMySat

Download on the App Store